Rakoskert, Hungary

3:54 PM CET on February 19, 2017 (GMT +0100)
Ferihegy

Weather History for LHBP - November, 2011

Change the Weather History Date:

Monday, November 21, 2011

  Actual Average Record
Temperature  
Mean Temperature 32 °F -  
Max Temperature 33 °F 38 °F 62 °F (2002)
Min Temperature 30 °F 26 °F 14 °F (1999)
Degree Days  
Heating Degree Days 34    
Moisture  
Dew Point 27 °F    
Average Humidity 83    
Maximum Humidity 87    
Minimum Humidity 80    
Precipitation  
Precipitation 0.00 in - - ()
Sea Level Pressure  
Sea Level Pressure 30.32 in    
Wind  
Wind Speed 5 mph ()    
Max Wind Speed 8 mph    
Max Gust Speed -    
Visibility 2.4 miles    
Events      
Averages and records for this station are not official NWS values.
T = Trace of Precipitation, MM = Missing Value Source: Averaged Metar Reports

Daily Weather History Graph

Daily Weather History Graph

Search for Another Location

Airport or City:

Trip Planner

Search our weather history database for the weather conditions in past years. The results will help you decide how hot, cold, wet, or windy it might be!

Date:

Astronomy

Nov. 21, 2011 Rise Set
Actual Time 6:55 AM CET 4:01 PM CET
Civil Twilight 6:21 AM CET 4:35 PM CET
Nautical Twilight 5:43 AM CET 5:13 PM CET
Astronomical Twilight 5:07 AM CET 5:49 PM CET
Moon 1:56 AM CET (11/21) 1:27 PM CET (11/21)
Length of Visible Light 10h 14m
Length of Day
9h 05m
Waning Crescent, 20% of the Moon is Illuminated
Nov 21
Waning Crescent
Nov 25
New
Dec 2
First Quarter
Dec 10
Full
Dec 18
Last Quarter

Hourly Weather History & Observations

Time (CET) Temp. Windchill Dew Point Humidity Pressure Visibility Wind Dir Wind Speed Gust Speed Precip Events Conditions
12:00 AM 33.8 °F 30.8 °F 28.4 °F 81% 30.33 in 1.9 mi Variable 3.5 mph - N/A   Overcast
12:30 AM 33.8 °F 29.6 °F 30.2 °F 87% 30.33 in 1.9 mi SSE 4.6 mph - N/A   Overcast
1:00 AM 33.8 °F 29.6 °F 30.2 °F 87% 30.33 in 1.9 mi South 4.6 mph - N/A   Overcast
1:30 AM 33.8 °F - 28.4 °F 81% 30.33 in 1.9 mi Variable 2.3 mph - N/A   Overcast
2:00 AM 33.8 °F 29.6 °F 28.4 °F 81% 30.33 in 1.9 mi SSW 4.6 mph - N/A   Overcast
2:30 AM 33.8 °F 29.6 °F 28.4 °F 81% 30.33 in 2.2 mi SSW 4.6 mph - N/A   Overcast
3:00 AM 32.0 °F 26.4 °F 28.4 °F 87% 30.33 in 2.2 mi South 5.8 mph - N/A   Overcast
3:30 AM 32.0 °F 27.5 °F 28.4 °F 87% 30.33 in 2.2 mi SSE 4.6 mph - N/A   Overcast
4:00 AM 32.0 °F 27.5 °F 28.4 °F 87% 30.33 in 2.2 mi SW 4.6 mph - N/A   Overcast
4:30 AM 32.0 °F 28.7 °F 28.4 °F 87% 30.33 in 2.2 mi Variable 3.5 mph - N/A   Overcast
5:00 AM 32.0 °F - 28.4 °F 87% 30.33 in 2.2 mi Variable 2.3 mph - N/A   Overcast
5:30 AM 32.0 °F 28.7 °F 28.4 °F 87% 30.33 in 2.5 mi Variable 3.5 mph - N/A   Overcast
6:00 AM 32.0 °F 28.7 °F 28.4 °F 87% 30.33 in - Variable 3.5 mph - N/A   Overcast
6:30 AM 32.0 °F 28.7 °F 28.4 °F 87% 30.33 in - Variable 3.5 mph - N/A   Overcast
7:00 AM 32.0 °F 28.7 °F 28.4 °F 87% 30.33 in 2.5 mi Variable 3.5 mph - N/A   Overcast
7:30 AM 32.0 °F 27.5 °F 26.6 °F 80% 30.33 in 2.5 mi SSE 4.6 mph - N/A   Overcast
8:00 AM 32.0 °F 25.6 °F 26.6 °F 80% 30.33 in 2.5 mi SSE 6.9 mph - N/A   Overcast
8:30 AM 32.0 °F 25.6 °F 26.6 °F 80% 30.33 in 2.5 mi SSE 6.9 mph - N/A   Overcast
9:00 AM 32.0 °F 25.6 °F 26.6 °F 80% 30.33 in 2.5 mi SSE 6.9 mph - N/A   Overcast
9:30 AM 32.0 °F 25.6 °F 26.6 °F 80% 30.33 in 2.5 mi SSE 6.9 mph - N/A   Overcast
10:00 AM 32.0 °F 24.8 °F 26.6 °F 80% 30.33 in 2.5 mi SSE 8.1 mph - N/A   Overcast
10:30 AM 32.0 °F 24.8 °F 26.6 °F 80% 30.33 in 2.5 mi SSE 8.1 mph - N/A   Overcast
11:00 AM 32.0 °F 24.8 °F 26.6 °F 80% 30.33 in 2.5 mi South 8.1 mph - N/A   Overcast
11:30 AM 32.0 °F 24.8 °F 28.4 °F 87% 30.33 in 2.5 mi South 8.1 mph - N/A   Overcast
12:00 PM 32.0 °F 24.8 °F 26.6 °F 80% 30.33 in 2.5 mi South 8.1 mph - N/A   Overcast
12:30 PM 32.0 °F 24.8 °F 26.6 °F 80% 30.33 in 2.5 mi SSE 8.1 mph - N/A   Overcast
1:00 PM 32.0 °F 24.8 °F 26.6 °F 80% 30.33 in 2.5 mi SSE 8.1 mph - N/A   Overcast
1:30 PM 32.0 °F 26.4 °F 26.6 °F 80% 30.33 in 2.5 mi South 5.8 mph - N/A   Overcast
2:00 PM 32.0 °F 26.4 °F 28.4 °F 87% 30.30 in 2.5 mi SSE 5.8 mph - N/A   Overcast
2:30 PM 32.0 °F 25.6 °F 28.4 °F 87% 30.30 in 2.5 mi South 6.9 mph - N/A   Overcast
3:00 PM 32.0 °F 25.6 °F 26.6 °F 80% 30.30 in 2.5 mi South 6.9 mph - N/A   Overcast
3:30 PM 32.0 °F 25.6 °F 26.6 °F 80% 30.30 in 2.5 mi SE 6.9 mph - N/A   Overcast
4:00 PM 32.0 °F 26.4 °F 26.6 °F 80% 30.30 in 2.5 mi SSE 5.8 mph - N/A   Overcast
4:30 PM 32.0 °F 27.5 °F 26.6 °F 80% 30.30 in 2.5 mi South 4.6 mph - N/A   Overcast
5:00 PM 32.0 °F 25.6 °F 26.6 °F 80% 30.30 in 2.5 mi SE 6.9 mph - N/A   Overcast
5:30 PM 32.0 °F 26.4 °F 26.6 °F 80% 30.30 in 2.5 mi SSE 5.8 mph - N/A   Overcast
6:00 PM 32.0 °F 25.6 °F 26.6 °F 80% 30.30 in 2.5 mi SSE 6.9 mph - N/A   Overcast
6:30 PM 30.2 °F 23.4 °F 26.6 °F 86% 30.30 in 2.5 mi SE 6.9 mph - N/A   Overcast
7:00 PM 30.2 °F 23.4 °F 26.6 °F 86% 30.30 in 2.5 mi South 6.9 mph - N/A   Overcast
7:30 PM 32.0 °F 26.4 °F 26.6 °F 80% 30.30 in 2.8 mi SSE 5.8 mph - N/A   Overcast
8:00 PM 32.0 °F 25.6 °F 26.6 °F 80% 30.30 in 2.8 mi SE 6.9 mph - N/A   Overcast
8:30 PM 30.2 °F 24.3 °F 26.6 °F 86% 30.30 in 2.8 mi South 5.8 mph - N/A   Overcast
9:00 PM 30.2 °F 24.3 °F 26.6 °F 86% 30.30 in 2.8 mi SSE 5.8 mph - N/A   Overcast
9:30 PM 30.2 °F 24.3 °F 26.6 °F 86% 30.30 in 2.8 mi South 5.8 mph - N/A   Overcast
10:00 PM 32.0 °F 24.8 °F 26.6 °F 80% 30.30 in 2.5 mi SSE 8.1 mph - N/A   Overcast
10:30 PM 30.2 °F 25.4 °F 26.6 °F 86% 30.30 in 2.5 mi SE 4.6 mph - N/A   Overcast
11:00 PM 30.2 °F 26.7 °F 26.6 °F 86% 30.30 in 2.2 mi Variable 3.5 mph - N/A   Overcast
11:30 PM 30.2 °F 25.4 °F 26.6 °F 86% 30.30 in 2.2 mi SSE 4.6 mph - N/A   Overcast